Location: Eekwerd
(53.3234°N, 6.7984°E)
Time: 12:03:41
(UTC+00:00)

YAOGAN 11 - Pass Details

Date: 15 May 2026
Orbit: 599 x 646 km, 98.4° (Epoch: 5 June)

Event Time Altitude Azimuth Distance (km) Brightness Sun altitude
Rises 20:44:38 0° 14° (NNE) 2,943 8.1 -9.4°
Reaches altitude 10° 20:46:50 10° 14° (NNE) 2,037 7.3 -9.6°
Maximum altitude 20:51:16 81° 287° (WNW) 656 4.3 -10.0°
Drops below altitude 10° 20:55:44 10° 201° (SSW) 2,040 6.4 -10.4°
Sets 20:57:56 0° 200° (SSW) 2,948 7.2 -10.6°
